Location: *
(50.0228°S, 177.2688°W)
Time: 02:19:28
(UTC+00:00)

SL-14 R/B - Pass Details

Date: 07 April 2020
Orbit: 517 x 556 km, 82.4° (Epoch: 04 June)

Event Time Altitude Azimuth Distance (km) Brightness Sun altitude
Rises 06:25:41 0° 27° (NNE) 2,664 6.5 -10.9°
Reaches altitude 10° 06:28:12 10° 43° (NE) 1,779 5.5 -11.3°
Maximum altitude 06:31:09 21° 92° (E) 1,244 4.5 -11.8°
Drops below altitude 10° 06:34:06 10° 141° (SE) 1,791 5.6 -12.3°
Sets 06:36:38 0° 157° (SSE) 2,689 6.6 -12.7°
